Location: Waco, TX
(31.5480°N, 97.1670°W)
Time: 22:14:07
(UTC-05:00)

ISS - Pass Details

Date: 28 May 2017
Orbit: 402 x 409 km, 51.6° (Epoch: 23 May)

Event Time Altitude Azimuth Distance (km) Brightness Sun altitude
Rises 19:05:04 0° 200° (SSW) 2,314 0.1 15.4°
Reaches altitude 10° 19:07:21 10° 186° (S) 1,458 -1.1 14.9°
Maximum altitude 19:10:06 25° 129° (SE) 860 -2.6 14.4°
Drops below altitude 10° 19:12:52 10° 71° (ENE) 1,465 -1.4 13.8°
Sets 19:15:10 0° 58° (ENE) 2,328 -0.4 13.3°
